| time (UTC) | temp F | wind direction | speed MPH | gust MPH | rain 1hr in | rain 24hr in | rain mn in | humidity % | barometer mb |
| 20260506101524 | 44 | 308 | 1.0 | 2.0 | 0.03 | 1.27 | 0.25 | 98 | 1010.0 |
| 20260506100525 | 44 | 305 | 0.0 | 2.0 | 0.03 | 1.27 | 0.25 | 98 | 1010.1 |
| 20260506095526 | 44 | 67 | 1.0 | 3.0 | 0.03 | 1.26 | 0.24 | 98 | 1010.6 |
| 20260506094528 | 44 | 309 | 3.0 | 4.0 | 0.03 | 1.26 | 0.24 | 98 | 1011.1 |
| 20260506093529 | 45 | 300 | 3.0 | 4.0 | 0.03 | 1.26 | 0.24 | 98 | 1010.9 |
| 20260506092531 | 45 | 328 | 3.0 | 6.0 | 0.04 | 1.25 | 0.23 | 98 | 1010.7 |
| 20260506091533 | 45 | 262 | 1.0 | 3.0 | 0.05 | 1.24 | 0.22 | 98 | 1010.5 |
| 20260506090515 | 45 | 270 | 0.0 | 2.0 | 0.06 | 1.24 | 0.22 | 98 | 1010.4 |
| 20260506085517 | 45 | 0.0 | 2.0 | 0.06 | 1.23 | 0.21 | 97 | 1009.9 | |
| 20260506084518 | 45 | 45 | 0.0 | 2.0 | 0.07 | 1.23 | 0.21 | 97 | 1010.4 |
| 20260506083539 | 45 | 315 | 0.0 | 2.0 | 0.08 | 1.23 | 0.21 | 97 | 1010.7 |
| 20260506082521 | 45 | 18 | 1.0 | 3.0 | 0.07 | 1.21 | 0.19 | 97 | 1010.9 |
| 20260506081516 | 45 | 300 | 0.0 | 2.0 | 0.06 | 1.19 | 0.17 | 97 | 1010.9 |
| 20260506080544 | 45 | 348 | 1.0 | 2.0 | 0.05 | 1.18 | 0.16 | 97 | 1010.8 |
| 20260506073528 | 44 | 347 | 1.0 | 2.0 | 0.03 | 1.15 | 0.13 | 97 | 1010.4 |
| 20260506072529 | 45 | 347 | 2.0 | 3.0 | 0.02 | 1.14 | 0.12 | 97 | 1010.3 |
| 20260506071530 | 45 | 350 | 1.0 | 2.0 | 0.02 | 1.13 | 0.11 | 97 | 1010.3 |
| 20260506070532 | 45 | 2 | 1.0 | 3.0 | 0.02 | 1.13 | 0.11 | 97 | 1010.4 |
| 20260506061521 | 45 | 335 | 2.0 | 2.0 | 0.04 | 1.11 | 0.09 | 97 | 1010.4 |
| 20260506060516 | 45 | 315 | 0.0 | 2.0 | 0.05 | 1.11 | 0.09 | 97 | 1010.4 |
| 20260506050530 | 45 | 358 | 1.0 | 4.0 | 0.04 | 1.06 | 0.04 | 97 | 1011.0 |
| 20260506044515 | 46 | 346 | 2.0 | 4.0 | 0.04 | 1.05 | 0.03 | 97 | 1011.3 |
| 20260506043517 | 46 | 337 | 1.0 | 2.0 | 0.05 | 1.05 | 0.03 | 97 | 1011.3 |
| 20260506042518 | 46 | 26 | 1.0 | 3.0 | 0.06 | 1.04 | 0.02 | 97 | 1011.5 |
| 20260506041519 | 46 | 358 | 2.0 | 4.0 | 0.06 | 1.03 | 0.01 | 97 | 1011.6 |
| 20260506040521 | 46 | 347 | 2.0 | 3.0 | 0.07 | 1.02 | 0.00 | 97 | 1011.6 |
| 20260506035516 | 47 | 287 | 1.0 | 4.0 | 0.10 | 1.02 | 1.02 | 97 | 1011.7 |
| 20260506034524 | 47 | 328 | 1.0 | 3.0 | 0.11 | 1.01 | 1.01 | 97 | 1011.8 |
| 20260506033525 | 47 | 330 | 2.0 | 5.0 | 0.13 | 1.00 | 1.00 | 97 | 1011.7 |
| 20260506032527 | 48 | 332 | 2.0 | 3.0 | 0.13 | 0.98 | 0.98 | 97 | 1011.8 |
| 20260506031618 | 48 | 299 | 1.0 | 3.0 | 0.15 | 0.97 | 0.97 | 97 | 1011.8 |
| 20260506030529 | 48 | 334 | 1.0 | 3.0 | 0.16 | 0.95 | 0.95 | 97 | 1011.7 |
| 20260506025530 | 48 | 348 | 1.0 | 4.0 | 0.15 | 0.92 | 0.92 | 97 | 1011.5 |
| 20260506024532 | 48 | 326 | 1.0 | 3.0 | 0.15 | 0.90 | 0.90 | 97 | 1011.2 |
| 20260506023516 | 48 | 9 | 2.0 | 3.0 | 0.13 | 0.87 | 0.87 | 97 | 1011.3 |
| 20260506022517 | 48 | 335 | 2.0 | 4.0 | 0.12 | 0.85 | 0.85 | 97 | 1011.2 |
| 20260506021518 | 48 | 3 | 2.0 | 3.0 | 0.09 | 0.82 | 0.82 | 97 | 1011.2 |
| 20260506020520 | 48 | 349 | 0.0 | 2.0 | 0.07 | 0.79 | 0.79 | 97 | 1011.3 |
| 20260506015521 | 48 | 0 | 0.0 | 2.0 | 0.07 | 0.77 | 0.77 | 96 | 1011.4 |
| 20260506014517 | 48 | 315 | 0.0 | 2.0 | 0.07 | 0.75 | 0.75 | 96 | 1011.2 |
| 20260506013524 | 48 | 0.0 | 0.0 | 0.08 | 0.74 | 0.74 | 96 | 1011.2 | |
| 20260506012545 | 49 | 0.0 | 0.0 | 0.07 | 0.73 | 0.73 | 96 | 1011.0 | |
| 20260506011527 | 48 | 0.0 | 0.0 | 0.07 | 0.73 | 0.73 | 96 | 1011.0 | |
| 20260506010549 | 48 | 0.0 | 0.0 | 0.06 | 0.72 | 0.72 | 96 | 1011.0 | |
| 20260506005530 | 48 | 7 | 1.0 | 3.0 | 0.05 | 0.70 | 0.70 | 96 | 1010.9 |
| 20260506004531 | 48 | 0.0 | 0.0 | 0.03 | 0.68 | 0.68 | 96 | 1010.7 | |
| 20260506003533 | 48 | 0.0 | 0.0 | 0.02 | 0.66 | 0.66 | 96 | 1010.8 | |
| 20260506002536 | 48 | 293 | 0.0 | 2.0 | 0.03 | 0.66 | 0.66 | 96 | 1010.7 |
| 20260506001518 | 48 | 0.0 | 0.0 | 0.05 | 0.66 | 0.66 | 96 | 1010.6 | |
| 20260506000519 | 48 | 0.0 | 0.0 | 0.09 | 0.66 | 0.66 | 96 | 1010.6 | |
| 20260505235520 | 48 | 31 | 2.0 | 3.0 | 0.10 | 0.65 | 0.65 | 96 | 1010.6 |
| 20260505234521 | 48 | 117 | 2.0 | 2.0 | 0.11 | 0.65 | 0.65 | 95 | 1011.2 |
| 20260505233517 | 48 | 351 | 1.0 | 2.0 | 0.14 | 0.64 | 0.64 | 95 | 1011.0 |
| 20260505232524 | 48 | 352 | 2.0 | 4.0 | 0.15 | 0.63 | 0.63 | 95 | 1011.3 |
| 20260505231601 | 48 | 353 | 2.0 | 3.0 | 0.16 | 0.61 | 0.61 | 95 | 1011.2 |
| 20260505230522 | 48 | 317 | 2.0 | 3.0 | 0.13 | 0.57 | 0.57 | 95 | 1010.9 |
| 20260505225523 | 48 | 351 | 3.0 | 4.0 | 0.14 | 0.55 | 0.55 | 94 | 1011.0 |
| 20260505224525 | 48 | 353 | 2.0 | 5.0 | 0.15 | 0.54 | 0.54 | 94 | 1011.3 |
| 20260505223606 | 48 | 304 | 1.0 | 2.0 | 0.13 | 0.50 | 0.50 | 94 | 1011.1 |
| 20260505222531 | 48 | 316 | 3.0 | 4.0 | 0.14 | 0.48 | 0.48 | 94 | 1011.0 |
| 20260505221529 | 49 | 338 | 3.0 | 4.0 | 0.17 | 0.45 | 0.45 | 94 | 1010.9 |
| 20260505220551 | 49 | 337 | 2.0 | 3.0 | 0.21 | 0.44 | 0.44 | 94 | 1010.8 |
| 20260505215532 | 49 | 293 | 3.0 | 4.0 | 0.21 | 0.41 | 0.41 | 93 | 1010.7 |
| 20260505214515 | 50 | 340 | 3.0 | 4.0 | 0.21 | 0.39 | 0.39 | 93 | 1010.9 |
| 20260505213516 | 50 | 296 | 2.0 | 5.0 | 0.21 | 0.37 | 0.37 | 93 | 1011.0 |
| 20260505212518 | 50 | 325 | 4.0 | 5.0 | 0.24 | 0.34 | 0.34 | 93 | 1010.8 |
| 20260505211520 | 51 | 350 | 4.0 | 7.0 | 0.20 | 0.28 | 0.28 | 92 | 1010.7 |
| 20260505210521 | 53 | 345 | 4.0 | 7.0 | 0.16 | 0.23 | 0.23 | 92 | 1010.4 |
| 20260505205522 | 54 | 307 | 3.0 | 6.0 | 0.15 | 0.20 | 0.20 | 92 | 1010.4 |
| 20260505204523 | 55 | 317 | 2.0 | 4.0 | 0.15 | 0.18 | 0.18 | 91 | 1010.4 |
| 20260505203545 | 55 | 340 | 2.0 | 3.0 | 0.14 | 0.16 | 0.16 | 90 | 1010.4 |
| 20260505202525 | 56 | 279 | 1.0 | 2.0 | 0.10 | 0.10 | 0.10 | 89 | 1010.3 |
| 20260505201527 | 56 | 323 | 1.0 | 2.0 | 0.08 | 0.08 | 0.08 | 89 | 1010.3 |
| 20260505200549 | 56 | 357 | 1.0 | 3.0 | 0.07 | 0.07 | 0.07 | 88 | 1010.4 |
| 20260505195550 | 56 | 336 | 1.0 | 3.0 | 0.05 | 0.05 | 0.05 | 86 | 1010.7 |
| 20260505194531 | 57 | 299 | 2.0 | 3.0 | 0.03 | 0.03 | 0.03 | 85 | 1010.4 |
| 20260505193527 | 57 | 333 | 2.0 | 5.0 | 0.02 | 0.02 | 0.02 | 83 | 1010.8 |
| 20260505192516 | 58 | 281 | 3.0 | 4.0 | 0.00 | 0.00 | 0.00 | 81 | 1010.7 |
| 20260505191538 | 58 | 282 | 3.0 | 4.0 | 0.00 | 0.00 | 0.00 | 79 | 1010.7 |
| 20260505190519 | 59 | 291 | 2.0 | 4.0 | 0.00 | 0.00 | 0.00 | 77 | 1010.7 |
| 20260505185533 | 61 | 291 | 2.0 | 5.0 | 0.00 | 0.00 | 0.00 | 75 | 1010.8 |
| 20260505184516 | 61 | 313 | 3.0 | 7.0 | 0.00 | 0.00 | 0.00 | 73 | 1010.8 |
| 20260505183518 | 63 | 298 | 3.0 | 5.0 | 0.00 | 0.00 | 0.00 | 71 | 1010.6 |
| 20260505182519 | 64 | 269 | 2.0 | 3.0 | 0.00 | 0.00 | 0.00 | 71 | 1010.5 |
| 20260505181540 | 64 | 350 | 2.0 | 4.0 | 0.00 | 0.00 | 0.00 | 71 | 1010.4 |
| 20260505180522 | 63 | 260 | 3.0 | 6.0 | 0.00 | 0.00 | 0.00 | 70 | 1010.4 |
| 20260505175523 | 64 | 273 | 3.0 | 3.0 | 0.00 | 0.00 | 0.00 | 70 | 1010.4 |
| 20260505174524 | 64 | 295 | 3.0 | 4.0 | 0.00 | 0.00 | 0.00 | 70 | 1010.4 |
| 20260505173526 | 64 | 244 | 2.0 | 3.0 | 0.00 | 0.00 | 0.00 | 70 | 1010.2 |
| 20260505172528 | 63 | 326 | 3.0 | 5.0 | 0.00 | 0.00 | 0.00 | 69 | 1010.2 |
| 20260505171523 | 63 | 279 | 2.0 | 4.0 | 0.00 | 0.00 | 0.00 | 68 | 1010.2 |
| 20260505170518 | 63 | 284 | 3.0 | 6.0 | 0.00 | 0.00 | 0.00 | 67 | 1010.2 |
| 20260505165532 | 63 | 317 | 3.0 | 4.0 | 0.00 | 0.00 | 0.00 | 66 | 1010.2 |
| 20260505164528 | 64 | 284 | 4.0 | 6.0 | 0.00 | 0.00 | 0.00 | 63 | 1010.2 |
| 20260505163529 | 66 | 328 | 3.0 | 5.0 | 0.00 | 0.00 | 0.00 | 59 | 1010.1 |
| 20260505162531 | 70 | 231 | 4.0 | 6.0 | 0.00 | 0.00 | 0.00 | 57 | 1009.9 |
| 20260505161552 | 71 | 254 | 6.0 | 11.0 | 0.00 | 0.00 | 0.00 | 57 | 1009.7 |
| 20260505160515 | 71 | 225 | 6.0 | 8.0 | 0.00 | 0.00 | 0.00 | 58 | 1009.7 |
| 20260505152521 | 69 | 216 | 5.0 | 6.0 | 0.00 | 0.00 | 0.00 | 61 | 1009.0 |
| 20260505151522 | 69 | 227 | 6.0 | 12.0 | 0.00 | 0.00 | 0.00 | 63 | 1009.2 |
| 20260505150524 | 67 | 136 | 4.0 | 6.0 | 0.00 | 0.00 | 0.00 | 65 | 1009.2 |
| 20260505124519 | 62 | 214 | 6.0 | 10.0 | 0.00 | 0.00 | 0.00 | 70 | 1008.5 |
| 20260505123527 | 62 | 218 | 5.0 | 8.0 | 0.00 | 0.00 | 0.00 | 70 | 1008.4 |
| 20260505122528 | 62 | 219 | 5.0 | 7.0 | 0.00 | 0.00 | 0.00 | 70 | 1008.0 |
| 20260505121529 | 62 | 229 | 6.0 | 8.0 | 0.00 | 0.00 | 0.00 | 69 | 1007.8 |
| 20260505120531 | 62 | 273 | 5.0 | 9.0 | 0.00 | 0.00 | 0.00 | 68 | 1007.6 |
| 20260505115533 | 62 | 225 | 5.0 | 7.0 | 0.00 | 0.00 | 0.00 | 67 | 1007.8 |
| 20260505114516 | 62 | 217 | 8.0 | 11.0 | 0.00 | 0.00 | 0.00 | 65 | 1007.7 |
| 20260505113537 | 63 | 180 | 6.0 | 11.0 | 0.00 | 0.00 | 0.00 | 65 | 1007.7 |
| 20260505112518 | 63 | 223 | 6.0 | 14.0 | 0.00 | 0.00 | 0.00 | 65 | 1007.5 |
| 20260505111520 | 63 | 200 | 7.0 | 13.0 | 0.00 | 0.00 | 0.00 | 65 | 1007.4 |
| 20260505110521 | 64 | 43 | 5.0 | 7.0 | 0.00 | 0.00 | 0.00 | 65 | 1007.3 |